Home > Time Zones > World Clock > Weather > India > Moga > Past weeks

Flag for India Weather past 2 weeks in Moga, Punjab, India

Now
46 °F

Fog.


Feels Like: 44 °F
Forecast: 40 / 64 °F
Wind: 6 mph from Northwest

Location: Amritsar Airport

Current Time: Dec 19, 2014 at 2:36:40 PM

Latest Report: Dec 19, 2014 at 2:00 PM


Visibility: 1 mi

Pressure: 30.21 "Hg

Humidity: 93%

Dew point: 45 °F

Location of MogaLocation

Historic Weather in Moga — Graph

°F

Moga temperature yesterday

Maximum temperature yesterday: 46 °F (at 9:30 AM)
Minimum temperature yesterday: 43 °F (at 2:00 AM)
Average temperature yesterday: 45 °F

Past Weeks' High & Low Weather Summary

 TemperatureHumidityPressure
High79 °F (Dec 4, 3:30 PM)100% (Dec 5, 4:00 AM)30.27 "Hg (Dec 5, 4:00 AM)
Low37 °F (Dec 16, 7:30 AM)22% (Dec 9, 3:30 PM)29.77 "Hg (Dec 12, 2:30 PM)
Average54 °F74%30.07 "Hg
* Reported Dec 4 1:00 PM — Dec 19 1:00 PM, Moga, Weather by CustomWeather, © 2014

Note: Actual official high and low records may vary slightly from our data, if they occured in-between our weather recording intervals... More about our weather records

Advertising

Moga weather history for previous 24 hours

 ConditionsComfort  
Time TempWeatherWind HumidityBarometerVisibility
1:00 PM
Dec 19
48 °FFog.3 mph87%30.24 "Hg1 mi
12:30 PM46 °FFog.2 mph93%30.24 "Hg1 mi
11:00 AM45 °FFog.2 mph100%30.24 "Hg1 mi
10:30 AM45 °FFog.3 mph100%30.27 "Hg1 mi
10:00 AM45 °FFog.No wind100%30.27 "Hg0 mi
9:30 AM45 °FFog.No wind100%30.27 "Hg0 mi
9:00 AM45 °FFog.No wind100%30.24 "Hg0 mi
8:30 AM45 °FFog.No wind100%30.24 "Hg0 mi
8:00 AM45 °FFog.2 mph100%30.24 "Hg0 mi
7:30 AM45 °FFog.No wind100%30.21 "Hg0 mi
7:00 AM43 °FFog.No wind100%30.21 "Hg0 mi
6:30 AM45 °FFog.No wind100%30.21 "Hg0 mi
5:30 AM45 °FFog.No wind100%30.21 "HgN/A
4:30 AM45 °FFog.No wind100%30.21 "Hg0 mi
12:30 AM45 °FFog.1 mph100%30.21 "Hg0 mi
12:00 AM45 °FFog.No wind100%30.21 "Hg0 mi
11:00 PM
Dec 18
45 °FFog.No wind100%30.21 "Hg0 mi
10:30 PM45 °FFog.No wind100%30.21 "Hg0 mi
10:00 PM46 °FFog.No wind93%30.21 "Hg0 mi
9:30 PM45 °FFog.1 mph100%30.18 "Hg0 mi
8:30 PM45 °FFog.1 mph100%30.18 "Hg0 mi
8:00 PM45 °FFog.1 mph100%30.18 "Hg0 mi
7:30 PM45 °FFog.1 mph100%30.18 "Hg0 mi
7:00 PM46 °FFog.No wind100%30.15 "Hg0 mi
6:30 PM45 °FFog.No wind100%30.15 "Hg0 mi
6:00 PM45 °FFog.2 mph100%30.15 "Hg0 mi
5:30 PM45 °FFog.2 mph100%30.15 "Hg0 mi
5:00 PM45 °FFog.No wind100%30.15 "Hg0 mi
4:30 PM45 °FFog.No wind100%30.15 "Hg0 mi
3:30 PM46 °FFog.5 mph100%30.15 "Hg1 mi
3:00 PM46 °FFog.3 mph100%30.15 "Hg1 mi
2:30 PM46 °FFog.6 mph100%30.15 "Hg0 mi
2:00 PM46 °FFog.7 mph100%30.15 "Hg0 mi
Weather by CustomWeather, © 2014

See weather overviewHow to use our weather pages